Regional Weather Roundup
Issued by NWS Bismarck, ND

Home | Current Version | Previous Version | Text Only | Print | Product List | Glossary On
Versions: 1 2 3 4 5 6 7 8 9 10 11 12 13 14 15 16 17 18 19 20 21 22 23 24 25 26 27 28 29 30 31 32 33 34 35 36 37 38 39 40 41 42 43 44 45 46 47 48 49 50
000
ASUS43 KBIS 201310
RWRBIS

NWR BROADCAST TEXT
NATIONAL WEATHER SERVICE BISMARCK ND
700 AM CST FRI JAN 20 2017

NOTE: "FAIR" INDICATES FEW OR NO CLOUDS BELOW 12,000 FEET WITH NO
SIGNIFICANT WEATHER AND/OR OBSTRUCTIONS TO VISIBILITY.


CITY           SKY/WX    TMP DP  RH WIND       PRES   REMARKS
WILLISTON      FAIR      15  13  91 CALM      29.40F
MINOT          FAIR      19  15  84 SW8       29.39S WCI   9
MINOT AFB      FOG       14  11  90 CALM      29.38F VSB 0
BISMARCK       FOG       23  21  92 CALM      29.42F VSB 1/4
DICKINSON      FAIR      21  18  88 NW7       29.35S WCI  12
GARRISON         N/A     11   9  92 CALM      29.40F
HETTINGER ARPT FAIR      24  21  88 N8        29.39R WCI  15
JAMESTOWN      FOG       33  33 100 SE9       29.43F VSB 1/2
CARRINGTON     CLOUDY    34  34 100 SE10      29.45S FOG
HAZEN          CLOUDY   N/A N/A N/A SE3       29.43F
MANDAN         FOG       21  19  93 CALM      29.41F VSB 1/4
RUGBY            N/A     23  23 100 SE8       29.43S FOG     WCI  14
STANLEY        FAIR      19  19 100 CALM      29.39S
TIOGA          FAIR      18  18 100 W6        29.38F WCI   9
WATFORD CITY   FAIR      18  16  93 SW5       29.40S WCI  11
$$

CITY           SKY/WX    TMP DP  RH WIND       PRES   REMARKS
GRAND FORKS    FOG       35  33  92 SE10      29.50F VSB 3/4
GRAND FORKS AF CLOUDY    34  32  93 SE9       29.50S FOG
DEVILS LAKE    FOG       32  30  93 SE3       29.45F VSB 3/4
FARGO          CLOUDY    36  36 100 SE14      29.53R FOG
CAVALIER         N/A     34  34 100 S9        29.49S FOG
GRAFTON        CLOUDY    34  34 100 SE13      29.52S FOG
GWINNER        CLOUDY    34  34 100 SE17      29.49R VSB 1/2
ROLLA            N/A    N/A N/A N/A MISG        N/A
$$

CITY           SKY/WX    TMP DP  RH WIND       PRES   REMARKS
ABERDEEN       CLOUDY    34  31  88 SE6       29.45S FOG
MOBRIDGE       FOG       24  20  84 N6        29.36S VSB 1/2 WCI  17
BUFFALO          N/A     23  19  85 W12       29.32R WCI  12
RAPID CITY     FAIR      28  20  71 NW8       29.38R WCI  20
GLASGOW        CLOUDY    29  25  85 W9        29.42S
SIDNEY         FAIR      17  14  88 SE5       29.42S WCI  10
WOLF POINT     FAIR      18  14  84 CALM      29.43S FOG
GLENDIVE       FAIR      17  14  88 CALM      29.43S
MILES CITY     CLOUDY    17  14  88 S8        29.45F WCI   7
BAKER          FAIR      17  14  88 NW3       29.42S
$$

CITY           SKY/WX    TMP DP  RH WIND       PRES   REMARKS
BILLINGS       CLOUDY    34  27  75 SW14      29.48S
GREAT FALLS    FAIR      33  24  69 SW14      29.44F
REGINA         CLEAR     16  14  93 E7        29.36S WCI   6
ESTEVAN        PTCLDY    12   9  85 W5        29.37F WCI   4
$$





USA.gov is the U.S. government's official web portal to all federal, state and local government web resources and services.